Location: Gad�tanya
(48.0500°N, 20.8500°E)
Time: 11:32:34
(UTC+00:00)

Cosmos 1048 Rocket - Pass Details

Date: 05 July 2020
Orbit: 744 x 791 km, 74.0° (Epoch: 15 August)

Event Time Altitude Azimuth Distance (km) Brightness Sun altitude
Exits shadow 23:19:34 33° 212° (SSW) 1,286 4.7 -18.8°
Maximum altitude 23:22:00 78° 293° (WNW) 798 4.0 -18.7°
Drops below altitude 10° 23:27:16 10° 21° (NNE) 2,318 7.7 -18.5°
Sets 23:29:39 0° 22° (NNE) 3,241 8.8 -18.5°
